N23017 KCHS-KTLH

Flight info

Callsign N23017
Flight time 2h 19m
Altitude 4000
Route SAV
Aircraft C172/L-SFG/C

Departure

Time 2026-04-21 23:30
Airport Charleston International Airport (KCHS)

Arrival

Time 2026-04-22 01:49
Airport Tallahassee International Airport (KTLH)
Time Latitude Longitude Altitude Speed Heading
2026-04-21 23:11 32.88467 -80.03352 30 ft 0 kts 217°
2026-04-21 23:19 32.88466 -80.03353 30 ft 1 kts 231°
2026-04-21 23:19 32.88457 -80.03361 30 ft 2 kts 140°
2026-04-21 23:20 32.88459 -80.03340 31 ft 5 kts 77°
2026-04-21 23:20 32.88471 -80.03319 31 ft 2 kts 29°
2026-04-21 23:20 32.88491 -80.03313 31 ft 5 kts 360°
2026-04-21 23:20 32.88535 -80.03336 30 ft 8 kts 328°
2026-04-21 23:21 32.88579 -80.03369 29 ft 7 kts 328°
2026-04-21 23:21 32.88609 -80.03391 30 ft 3 kts 325°
2026-04-21 23:21 32.88617 -80.03397 30 ft 0 kts 327°
2026-04-21 23:21 32.88631 -80.03408 31 ft 7 kts 326°
2026-04-21 23:22 32.88679 -80.03446 32 ft 8 kts 323°
2026-04-21 23:22 32.88712 -80.03494 33 ft 7 kts 292°
2026-04-21 23:22 32.88728 -80.03544 33 ft 7 kts 288°
2026-04-21 23:22 32.88745 -80.03609 33 ft 9 kts 280°
2026-04-21 23:23 32.88753 -80.03681 32 ft 9 kts 273°
2026-04-21 23:23 32.88747 -80.03766 33 ft 10 kts 257°
2026-04-21 23:23 32.88726 -80.03826 34 ft 6 kts 237°
2026-04-21 23:23 32.88702 -80.03865 35 ft 4 kts 229°
2026-04-21 23:24 32.88680 -80.03894 35 ft 6 kts 224°
2026-04-21 23:24 32.88649 -80.03929 34 ft 6 kts 219°
2026-04-21 23:24 32.88624 -80.03960 33 ft 5 kts 250°
2026-04-21 23:24 32.88627 -80.04005 33 ft 8 kts 310°
2026-04-21 23:25 32.88664 -80.04041 35 ft 5 kts 322°
2026-04-21 23:25 32.88680 -80.04089 36 ft 6 kts 258°
2026-04-21 23:25 32.88663 -80.04128 36 ft 6 kts 230°
2026-04-21 23:25 32.88640 -80.04160 37 ft 4 kts 231°
2026-04-21 23:26 32.88630 -80.04175 37 ft 3 kts 231°
2026-04-21 23:26 32.88614 -80.04199 37 ft 3 kts 232°
2026-04-21 23:26 32.88607 -80.04209 37 ft 6 kts 231°
2026-04-21 23:26 32.88565 -80.04274 37 ft 11 kts 231°
2026-04-21 23:27 32.88521 -80.04340 37 ft 10 kts 231°
2026-04-21 23:27 32.88486 -80.04394 38 ft 7 kts 234°
2026-04-21 23:27 32.88480 -80.04438 38 ft 5 kts 274°
2026-04-21 23:27 32.88481 -80.04458 38 ft 0 kts 271°
2026-04-21 23:28 32.88482 -80.04481 38 ft 6 kts 272°
2026-04-21 23:28 32.88497 -80.04544 38 ft 11 kts 346°
2026-04-21 23:28 32.88674 -80.04457 36 ft 49 kts 24°
2026-04-21 23:28 32.89100 -80.04230 42 ft 82 kts 23°
2026-04-21 23:29 32.89633 -80.03937 158 ft 89 kts 25°
2026-04-21 23:29 32.90224 -80.03613 258 ft 95 kts 28°
2026-04-21 23:29 32.90821 -80.03271 401 ft 95 kts 30°
2026-04-21 23:29 32.91409 -80.02923 542 ft 94 kts 33°
2026-04-21 23:30 32.92002 -80.02596 663 ft 97 kts 34°
2026-04-21 23:30 32.92610 -80.02275 797 ft 94 kts 29°
2026-04-21 23:30 32.93214 -80.01968 916 ft 95 kts 32°
2026-04-21 23:30 32.93834 -80.01666 1047 ft 97 kts 30°
2026-04-21 23:31 32.94507 -80.01536 1170 ft 106 kts 354°
2026-04-21 23:31 32.95143 -80.01992 1295 ft 112 kts 310°
2026-04-21 23:31 32.95363 -80.02864 1444 ft 110 kts 263°
2026-04-21 23:31 32.95060 -80.03649 1577 ft 103 kts 219°
2026-04-21 23:32 32.94470 -80.04094 1707 ft 100 kts 202°
2026-04-21 23:32 32.93872 -80.04509 1846 ft 99 kts 203°
2026-04-21 23:32 32.93266 -80.04922 1962 ft 101 kts 203°
2026-04-21 23:32 32.92664 -80.05330 2100 ft 99 kts 202°
2026-04-21 23:33 32.92065 -80.05738 2228 ft 99 kts 202°
2026-04-21 23:33 32.91474 -80.06138 2355 ft 99 kts 202°
2026-04-21 23:33 32.90874 -80.06547 2452 ft 100 kts 204°
2026-04-21 23:33 32.90273 -80.06954 2574 ft 99 kts 206°
2026-04-21 23:34 32.89666 -80.07365 2700 ft 101 kts 207°
2026-04-21 23:34 32.89049 -80.07784 2802 ft 105 kts 209°
2026-04-21 23:34 32.88412 -80.08216 2914 ft 106 kts 209°
2026-04-21 23:34 32.87765 -80.08654 3033 ft 107 kts 210°
2026-04-21 23:35 32.87120 -80.09091 3151 ft 107 kts 210°
2026-04-21 23:35 32.86473 -80.09529 3274 ft 107 kts 211°
2026-04-21 23:35 32.85828 -80.09966 3399 ft 107 kts 212°
2026-04-21 23:35 32.85180 -80.10404 3512 ft 107 kts 212°
2026-04-21 23:36 32.84529 -80.10845 3622 ft 108 kts 214°
2026-04-21 23:36 32.83874 -80.11287 3714 ft 108 kts 213°
2026-04-21 23:36 32.83220 -80.11729 3818 ft 108 kts 213°
2026-04-21 23:36 32.82568 -80.12170 3911 ft 108 kts 214°
2026-04-21 23:37 32.81915 -80.12610 4013 ft 108 kts 214°
2026-04-21 23:37 32.81234 -80.13073 4024 ft 117 kts 214°
2026-04-21 23:37 32.80509 -80.13563 4040 ft 123 kts 213°
2026-04-21 23:37 32.79751 -80.14074 4033 ft 127 kts 213°
2026-04-21 23:38 32.78979 -80.14595 4037 ft 128 kts 213°
2026-04-21 23:38 32.78204 -80.15118 4039 ft 128 kts 212°
2026-04-21 23:38 32.77429 -80.15640 4046 ft 128 kts 212°
2026-04-21 23:38 32.76667 -80.16155 4043 ft 129 kts 211°
2026-04-21 23:39 32.75883 -80.16684 4030 ft 130 kts 212°
2026-04-21 23:39 32.75097 -80.17216 4040 ft 130 kts 212°
2026-04-21 23:39 32.74311 -80.17746 4028 ft 130 kts 213°
2026-04-21 23:39 32.73521 -80.18279 4043 ft 131 kts 212°
2026-04-21 23:40 32.72726 -80.18815 4045 ft 132 kts 213°
2026-04-21 23:40 32.71928 -80.19353 4043 ft 132 kts 212°
2026-04-21 23:40 32.71130 -80.19891 4028 ft 132 kts 212°
2026-04-21 23:40 32.70338 -80.20425 4036 ft 131 kts 212°
2026-04-21 23:41 32.69547 -80.20958 4038 ft 130 kts 212°
2026-04-21 23:41 32.68762 -80.21487 4033 ft 131 kts 213°
2026-04-21 23:41 32.67970 -80.22021 4033 ft 131 kts 212°
2026-04-21 23:41 32.67179 -80.22553 4039 ft 131 kts 212°
2026-04-21 23:42 32.66381 -80.23091 4026 ft 132 kts 213°
2026-04-21 23:42 32.65580 -80.23630 4036 ft 132 kts 213°
2026-04-21 23:42 32.64779 -80.24169 4035 ft 132 kts 212°
2026-04-21 23:42 32.63984 -80.24703 4036 ft 131 kts 213°
2026-04-21 23:43 32.63191 -80.25237 4038 ft 132 kts 212°
2026-04-21 23:43 32.62395 -80.25772 4037 ft 131 kts 212°
2026-04-21 23:43 32.61607 -80.26303 4036 ft 130 kts 212°
2026-04-21 23:43 32.60829 -80.26826 4035 ft 130 kts 212°
2026-04-21 23:44 32.60041 -80.27356 4032 ft 130 kts 212°
2026-04-21 23:44 32.59252 -80.27886 4036 ft 131 kts 213°
2026-04-21 23:44 32.58459 -80.28425 4036 ft 131 kts 216°
2026-04-21 23:44 32.57693 -80.29013 4033 ft 131 kts 215°
2026-04-21 23:45 32.56917 -80.29579 4034 ft 130 kts 214°
2026-04-21 23:45 32.55375 -80.30719 4037 ft 131 kts 214°
2026-04-21 23:45 32.54606 -80.31289 4028 ft 130 kts 214°
2026-04-21 23:46 32.53841 -80.31858 4034 ft 130 kts 215°
2026-04-21 23:46 32.53073 -80.32428 4032 ft 130 kts 215°
2026-04-21 23:46 32.52302 -80.33000 4035 ft 131 kts 214°
2026-04-21 23:46 32.51530 -80.33573 4033 ft 132 kts 214°
2026-04-21 23:47 32.51013 -80.33958 4033 ft 133 kts 214°
2026-04-21 23:47 32.50226 -80.34542 4033 ft 134 kts 214°
2026-04-21 23:47 32.49437 -80.35127 4030 ft 133 kts 213°
2026-04-21 23:47 32.48649 -80.35711 4032 ft 134 kts 214°
2026-04-21 23:48 32.47598 -80.36491 4034 ft 133 kts 213°
2026-04-21 23:48 32.46827 -80.37062 4036 ft 132 kts 213°
2026-04-21 23:48 32.46299 -80.37455 4033 ft 132 kts 214°
2026-04-21 23:48 32.45524 -80.38029 4030 ft 134 kts 214°
2026-04-21 23:49 32.44756 -80.38598 4026 ft 133 kts 214°
2026-04-21 23:49 32.43972 -80.39177 4026 ft 133 kts 214°
2026-04-21 23:49 32.43184 -80.39762 4023 ft 134 kts 213°
2026-04-21 23:49 32.42394 -80.40348 4029 ft 134 kts 213°
2026-04-21 23:50 32.41605 -80.40932 4035 ft 133 kts 213°
2026-04-21 23:50 32.40818 -80.41514 4025 ft 134 kts 213°
2026-04-21 23:50 32.40034 -80.42094 4033 ft 132 kts 213°
2026-04-21 23:50 32.39256 -80.42670 4028 ft 132 kts 213°
2026-04-21 23:51 32.38475 -80.43248 4033 ft 133 kts 214°
2026-04-21 23:51 32.37687 -80.43830 4036 ft 133 kts 213°
2026-04-21 23:51 32.36900 -80.44413 4031 ft 133 kts 214°
2026-04-21 23:51 32.36113 -80.44995 4028 ft 133 kts 214°
2026-04-21 23:52 32.35326 -80.45577 4027 ft 134 kts 214°
2026-04-21 23:52 32.34536 -80.46160 4035 ft 133 kts 213°
2026-04-21 23:52 32.33748 -80.46742 4032 ft 134 kts 214°
2026-04-21 23:52 32.32957 -80.47327 4034 ft 134 kts 213°
2026-04-21 23:53 32.32170 -80.47907 4031 ft 133 kts 213°
2026-04-21 23:53 32.31390 -80.48484 4028 ft 132 kts 213°
2026-04-21 23:53 32.30616 -80.49056 4023 ft 133 kts 213°
2026-04-21 23:53 32.29832 -80.49633 4028 ft 132 kts 213°
2026-04-21 23:54 32.29048 -80.50214 4022 ft 134 kts 213°
2026-04-21 23:54 32.28259 -80.50795 4029 ft 134 kts 214°
2026-04-21 23:54 32.27467 -80.51379 4029 ft 134 kts 213°
2026-04-21 23:54 32.26678 -80.51961 4028 ft 133 kts 213°
2026-04-21 23:55 32.25892 -80.52541 4022 ft 133 kts 213°
2026-04-21 23:55 32.25105 -80.53122 4025 ft 133 kts 213°
2026-04-21 23:55 32.24321 -80.53699 4025 ft 133 kts 213°
2026-04-21 23:55 32.23533 -80.54280 4015 ft 135 kts 213°
2026-04-21 23:56 32.22731 -80.54871 4023 ft 136 kts 213°
2026-04-21 23:56 32.21930 -80.55461 4013 ft 136 kts 214°
2026-04-21 23:56 32.21123 -80.56056 4019 ft 137 kts 214°
2026-04-21 23:56 32.20311 -80.56653 4013 ft 137 kts 213°
2026-04-21 23:57 32.19506 -80.57245 4017 ft 136 kts 213°
2026-04-21 23:57 32.18704 -80.57836 4019 ft 136 kts 214°
2026-04-21 23:57 32.17902 -80.58426 4022 ft 136 kts 213°
2026-04-21 23:57 32.17110 -80.59008 4023 ft 136 kts 213°
2026-04-21 23:58 32.16305 -80.59600 4024 ft 137 kts 213°
2026-04-21 23:58 32.15489 -80.60201 4020 ft 138 kts 213°
2026-04-21 23:58 32.14676 -80.60799 4018 ft 138 kts 213°
2026-04-21 23:58 32.13858 -80.61400 4004 ft 139 kts 214°
2026-04-21 23:59 32.13032 -80.62007 4013 ft 140 kts 213°
2026-04-21 23:59 32.12216 -80.62606 4033 ft 137 kts 213°
2026-04-21 23:59 32.11409 -80.63198 4030 ft 136 kts 213°
2026-04-21 23:59 32.10608 -80.63786 4034 ft 135 kts 213°
2026-04-22 00:00 32.09815 -80.64369 4027 ft 133 kts 213°
2026-04-22 00:00 32.09037 -80.64941 4026 ft 134 kts 213°
2026-04-22 00:00 32.08231 -80.65532 4027 ft 135 kts 213°
2026-04-22 00:00 32.07430 -80.66120 4021 ft 136 kts 213°
2026-04-22 00:01 32.06616 -80.66717 4026 ft 138 kts 213°
2026-04-22 00:01 32.05813 -80.67307 4024 ft 138 kts 213°
2026-04-22 00:01 32.04995 -80.67906 4033 ft 138 kts 213°
2026-04-22 00:01 32.04176 -80.68507 4027 ft 139 kts 213°
2026-04-22 00:02 32.03357 -80.69107 4030 ft 138 kts 213°
2026-04-22 00:02 32.02548 -80.69699 4029 ft 135 kts 213°
2026-04-22 00:02 32.01749 -80.70285 4024 ft 136 kts 213°
2026-04-22 00:02 32.00944 -80.70875 4020 ft 136 kts 213°
2026-04-22 00:03 32.00145 -80.71460 4023 ft 135 kts 212°
2026-04-22 00:03 31.99342 -80.72049 4009 ft 137 kts 213°
2026-04-22 00:03 31.98528 -80.72644 4021 ft 138 kts 212°
2026-04-22 00:03 31.97710 -80.73243 4025 ft 138 kts 212°
2026-04-22 00:04 31.96893 -80.73841 4022 ft 139 kts 213°
2026-04-22 00:04 31.96077 -80.74438 4024 ft 137 kts 213°
2026-04-22 00:04 31.95266 -80.75032 4022 ft 137 kts 212°
2026-04-22 00:04 31.94461 -80.75621 4017 ft 136 kts 213°
2026-04-22 00:05 31.93655 -80.76209 4005 ft 136 kts 213°
2026-04-22 00:05 31.92858 -80.76792 4008 ft 135 kts 213°
2026-04-22 00:05 31.92059 -80.77375 4004 ft 136 kts 214°
2026-04-22 00:05 31.91262 -80.77958 4008 ft 137 kts 213°
2026-04-22 00:06 31.90449 -80.78551 4007 ft 137 kts 212°
2026-04-22 00:06 31.89637 -80.79145 4004 ft 138 kts 212°
2026-04-22 00:06 31.88820 -80.79742 4006 ft 138 kts 212°
2026-04-22 00:06 31.88011 -80.80332 4006 ft 136 kts 212°
2026-04-22 00:07 31.87200 -80.80924 4003 ft 136 kts 212°
2026-04-22 00:07 31.86395 -80.81512 3999 ft 136 kts 213°
2026-04-22 00:07 31.85594 -80.82096 3995 ft 135 kts 213°
2026-04-22 00:07 31.84792 -80.82682 3998 ft 136 kts 213°
2026-04-22 00:08 31.83988 -80.83268 4000 ft 136 kts 213°
2026-04-22 00:08 31.83184 -80.83854 4005 ft 136 kts 213°
2026-04-22 00:08 31.82384 -80.84438 4005 ft 136 kts 213°
2026-04-22 00:08 31.81575 -80.85028 4007 ft 137 kts 212°
2026-04-22 00:09 31.80769 -80.85615 4010 ft 135 kts 212°
2026-04-22 00:09 31.79968 -80.86199 4006 ft 136 kts 213°
2026-04-22 00:09 31.79159 -80.86788 4008 ft 138 kts 213°
2026-04-22 00:09 31.78343 -80.87381 4009 ft 138 kts 212°
2026-04-22 00:10 31.77538 -80.87968 4000 ft 138 kts 213°
2026-04-22 00:10 31.76715 -80.88568 4001 ft 139 kts 213°
2026-04-22 00:10 31.75897 -80.89162 4006 ft 137 kts 213°
2026-04-22 00:10 31.75086 -80.89753 4005 ft 138 kts 213°
2026-04-22 00:11 31.74273 -80.90343 4010 ft 135 kts 212°
2026-04-22 00:11 31.73478 -80.90922 4008 ft 134 kts 212°
2026-04-22 00:11 31.72682 -80.91502 4001 ft 135 kts 212°
2026-04-22 00:11 31.71879 -80.92086 3999 ft 137 kts 212°
2026-04-22 00:12 31.71068 -80.92674 4004 ft 137 kts 213°
2026-04-22 00:12 31.70254 -80.93267 4003 ft 138 kts 212°
2026-04-22 00:12 31.69429 -80.93867 3999 ft 141 kts 213°
2026-04-22 00:12 31.68598 -80.94470 4009 ft 140 kts 212°
2026-04-22 00:13 31.67775 -80.95068 4003 ft 139 kts 213°
2026-04-22 00:13 31.66947 -80.95668 4006 ft 140 kts 212°
2026-04-22 00:13 31.66128 -80.96264 4007 ft 138 kts 213°
2026-04-22 00:13 31.65312 -80.96856 4004 ft 138 kts 212°
2026-04-22 00:14 31.64490 -80.97453 4001 ft 140 kts 212°
2026-04-22 00:14 31.63666 -80.98050 4005 ft 139 kts 213°
2026-04-22 00:14 31.62838 -80.98651 4004 ft 140 kts 212°
2026-04-22 00:14 31.62021 -80.99243 4001 ft 140 kts 212°
2026-04-22 00:15 31.61195 -80.99842 4004 ft 139 kts 211°
2026-04-22 00:15 31.60381 -81.00433 4003 ft 138 kts 213°
2026-04-22 00:15 31.59566 -81.01023 3997 ft 137 kts 212°
2026-04-22 00:15 31.58760 -81.01607 4005 ft 135 kts 212°
2026-04-22 00:16 31.57961 -81.02185 3999 ft 135 kts 213°
2026-04-22 00:16 31.57159 -81.02768 4003 ft 135 kts 212°
2026-04-22 00:16 31.56358 -81.03347 4010 ft 135 kts 212°
2026-04-22 00:16 31.55548 -81.03934 4009 ft 139 kts 213°
2026-04-22 00:17 31.54723 -81.04530 4014 ft 140 kts 213°
2026-04-22 00:17 31.53896 -81.05129 4014 ft 139 kts 212°
2026-04-22 00:17 31.53070 -81.05727 4010 ft 141 kts 213°
2026-04-22 00:17 31.52240 -81.06327 4015 ft 139 kts 213°
2026-04-22 00:18 31.51413 -81.06926 4012 ft 140 kts 212°
2026-04-22 00:18 31.50597 -81.07516 4012 ft 140 kts 212°
2026-04-22 00:18 31.49757 -81.08123 4012 ft 140 kts 212°
2026-04-22 00:18 31.48942 -81.08712 4010 ft 139 kts 212°
2026-04-22 00:19 31.48115 -81.09310 4012 ft 140 kts 212°
2026-04-22 00:19 31.47285 -81.09909 4011 ft 140 kts 212°
2026-04-22 00:19 31.46464 -81.10502 4014 ft 137 kts 212°
2026-04-22 00:19 31.45646 -81.11093 4013 ft 139 kts 212°
2026-04-22 00:20 31.44826 -81.11685 4014 ft 137 kts 212°
2026-04-22 00:20 31.44021 -81.12267 4010 ft 135 kts 212°
2026-04-22 00:20 31.43218 -81.12847 4009 ft 136 kts 212°
2026-04-22 00:20 31.42411 -81.13429 4011 ft 136 kts 212°
2026-04-22 00:21 31.41603 -81.14011 4012 ft 137 kts 212°
2026-04-22 00:21 31.40790 -81.14598 4017 ft 137 kts 212°
2026-04-22 00:21 31.39984 -81.15180 4011 ft 137 kts 212°
2026-04-22 00:21 31.39174 -81.15763 4017 ft 136 kts 212°
2026-04-22 00:22 31.38363 -81.16348 4014 ft 138 kts 212°
2026-04-22 00:22 31.37512 -81.16867 4019 ft 138 kts 206°
2026-04-22 00:22 31.36665 -81.17376 4020 ft 136 kts 207°
2026-04-22 00:22 31.35820 -81.17884 4017 ft 137 kts 207°
2026-04-22 00:23 31.34974 -81.18388 4016 ft 139 kts 207°
2026-04-22 00:23 31.34119 -81.18897 4019 ft 138 kts 207°
2026-04-22 00:23 31.33262 -81.19406 4014 ft 139 kts 207°
2026-04-22 00:23 31.32399 -81.19920 4009 ft 139 kts 207°
2026-04-22 00:24 31.31542 -81.20428 4012 ft 137 kts 207°
2026-04-22 00:24 31.30695 -81.20932 4008 ft 137 kts 207°
2026-04-22 00:24 31.29850 -81.21433 4011 ft 135 kts 207°
2026-04-22 00:24 31.29004 -81.21935 4011 ft 136 kts 207°
2026-04-22 00:25 31.28160 -81.22436 4014 ft 136 kts 206°
2026-04-22 00:25 31.27311 -81.22941 4012 ft 137 kts 206°
2026-04-22 00:25 31.26459 -81.23446 4010 ft 138 kts 207°
2026-04-22 00:25 31.25600 -81.23955 4007 ft 139 kts 207°
2026-04-22 00:26 31.25091 -81.24258 4004 ft 141 kts 206°
2026-04-22 00:26 31.24732 -81.24471 4006 ft 141 kts 207°
2026-04-22 00:26 31.23862 -81.24987 4008 ft 139 kts 207°
2026-04-22 00:26 31.23007 -81.25493 4004 ft 138 kts 207°
2026-04-22 00:27 31.22154 -81.25998 4014 ft 136 kts 207°
2026-04-22 00:27 31.21314 -81.26496 4015 ft 135 kts 207°
2026-04-22 00:27 31.20488 -81.26986 4012 ft 134 kts 206°
2026-04-22 00:27 31.19644 -81.27486 4010 ft 135 kts 206°
2026-04-22 00:28 31.18820 -81.27983 4013 ft 135 kts 211°
2026-04-22 00:28 31.18211 -81.28800 4010 ft 135 kts 247°
2026-04-22 00:28 31.17933 -81.29840 4014 ft 134 kts 256°
2026-04-22 00:28 31.17672 -81.30878 4013 ft 133 kts 256°
2026-04-22 00:29 31.17409 -81.31920 4015 ft 135 kts 256°
2026-04-22 00:29 31.17144 -81.32971 4016 ft 134 kts 255°
2026-04-22 00:29 31.16879 -81.34021 4017 ft 134 kts 256°
2026-04-22 00:29 31.16615 -81.35065 4017 ft 135 kts 256°
2026-04-22 00:30 31.16348 -81.36121 4013 ft 136 kts 256°
2026-04-22 00:30 31.16080 -81.37176 4016 ft 136 kts 256°
2026-04-22 00:30 31.15812 -81.38233 4016 ft 136 kts 256°
2026-04-22 00:30 31.15547 -81.39283 4017 ft 135 kts 256°
2026-04-22 00:31 31.15281 -81.40334 4018 ft 135 kts 256°
2026-04-22 00:31 31.15014 -81.41385 4015 ft 135 kts 256°
2026-04-22 00:31 31.14747 -81.42439 4015 ft 136 kts 256°
2026-04-22 00:31 31.14478 -81.43497 4016 ft 136 kts 256°
2026-04-22 00:32 31.14209 -81.44558 4016 ft 137 kts 256°
2026-04-22 00:32 31.13940 -81.45617 4015 ft 136 kts 256°
2026-04-22 00:32 31.13673 -81.46669 4013 ft 135 kts 256°
2026-04-22 00:32 31.13406 -81.47723 4011 ft 135 kts 256°
2026-04-22 00:33 31.13139 -81.48773 4011 ft 135 kts 256°
2026-04-22 00:33 31.12872 -81.49821 4012 ft 135 kts 255°
2026-04-22 00:33 31.12606 -81.50870 4013 ft 134 kts 256°
2026-04-22 00:33 31.12343 -81.51903 4012 ft 134 kts 256°
2026-04-22 00:34 31.12076 -81.52947 4014 ft 134 kts 255°
2026-04-22 00:34 31.11811 -81.53991 4016 ft 135 kts 255°
2026-04-22 00:34 31.11543 -81.55044 4015 ft 136 kts 255°
2026-04-22 00:34 31.11274 -81.56101 4017 ft 135 kts 255°
2026-04-22 00:35 31.11097 -81.56794 4022 ft 134 kts 255°
2026-04-22 00:35 31.10830 -81.57840 4021 ft 134 kts 256°
2026-04-22 00:35 31.10562 -81.58891 4021 ft 135 kts 255°
2026-04-22 00:35 31.10296 -81.59937 4021 ft 134 kts 256°
2026-04-22 00:36 31.10029 -81.60982 4021 ft 135 kts 255°
2026-04-22 00:36 31.09761 -81.62031 4020 ft 135 kts 256°
2026-04-22 00:36 31.09490 -81.63093 4019 ft 136 kts 256°
2026-04-22 00:36 31.09220 -81.64146 4019 ft 135 kts 256°
2026-04-22 00:37 31.08953 -81.65191 4017 ft 134 kts 256°
2026-04-22 00:37 31.08691 -81.66218 4013 ft 134 kts 254°
2026-04-22 00:37 31.08423 -81.67263 4012 ft 135 kts 254°
2026-04-22 00:37 31.08154 -81.68318 4014 ft 136 kts 254°
2026-04-22 00:38 31.07884 -81.69375 4018 ft 136 kts 254°
2026-04-22 00:38 31.07613 -81.70432 4019 ft 136 kts 254°
2026-04-22 00:38 31.07343 -81.71484 4018 ft 135 kts 254°
2026-04-22 00:38 31.07075 -81.72531 4018 ft 135 kts 254°
2026-04-22 00:39 31.06806 -81.73577 4020 ft 135 kts 254°
2026-04-22 00:39 31.06537 -81.74626 4020 ft 135 kts 255°
2026-04-22 00:39 31.06267 -81.75681 4018 ft 136 kts 254°
2026-04-22 00:39 31.05998 -81.76730 4020 ft 135 kts 254°
2026-04-22 00:40 31.05728 -81.77781 4018 ft 135 kts 254°
2026-04-22 00:40 31.05459 -81.78827 4018 ft 135 kts 254°
2026-04-22 00:40 31.05190 -81.79874 4017 ft 134 kts 254°
2026-04-22 00:40 31.04922 -81.80916 4010 ft 134 kts 254°
2026-04-22 00:41 31.04654 -81.81960 4010 ft 134 kts 254°
2026-04-22 00:41 31.04386 -81.83003 4012 ft 134 kts 254°
2026-04-22 00:41 31.04119 -81.84039 4009 ft 134 kts 254°
2026-04-22 00:41 31.03852 -81.85076 4010 ft 134 kts 254°
2026-04-22 00:42 31.03584 -81.86116 4013 ft 134 kts 254°
2026-04-22 00:42 31.03318 -81.87148 4014 ft 135 kts 254°
2026-04-22 00:42 31.03048 -81.88198 4012 ft 135 kts 254°
2026-04-22 00:42 31.02773 -81.89263 4014 ft 136 kts 254°
2026-04-22 00:43 31.02505 -81.90305 4014 ft 135 kts 255°
2026-04-22 00:43 31.02235 -81.91354 4014 ft 135 kts 254°
2026-04-22 00:43 31.01963 -81.92401 4011 ft 135 kts 254°
2026-04-22 00:43 31.01694 -81.93443 4010 ft 134 kts 255°
2026-04-22 00:44 31.01426 -81.94482 4009 ft 134 kts 254°
2026-04-22 00:44 31.01157 -81.95523 4011 ft 134 kts 253°
2026-04-22 00:44 31.00888 -81.96562 4008 ft 134 kts 254°
2026-04-22 00:44 31.00621 -81.97599 4008 ft 134 kts 254°
2026-04-22 00:45 31.00352 -81.98635 4008 ft 134 kts 254°
2026-04-22 00:45 31.00085 -81.99671 4005 ft 133 kts 254°
2026-04-22 00:45 30.99823 -82.00705 4006 ft 133 kts 255°
2026-04-22 00:45 30.99572 -82.01743 4007 ft 133 kts 255°
2026-04-22 00:46 30.99320 -82.02783 4008 ft 134 kts 254°
2026-04-22 00:46 30.99066 -82.03827 4009 ft 134 kts 254°
2026-04-22 00:46 30.98811 -82.04875 4007 ft 135 kts 253°
2026-04-22 00:46 30.98554 -82.05926 4007 ft 135 kts 254°
2026-04-22 00:47 30.98297 -82.06979 4009 ft 135 kts 254°
2026-04-22 00:47 30.98039 -82.08032 4010 ft 135 kts 254°
2026-04-22 00:47 30.97783 -82.09081 4010 ft 135 kts 254°
2026-04-22 00:47 30.97527 -82.10132 4011 ft 134 kts 254°
2026-04-22 00:48 30.97271 -82.11177 4005 ft 134 kts 254°
2026-04-22 00:48 30.97015 -82.12222 4003 ft 134 kts 255°
2026-04-22 00:48 30.96759 -82.13269 4004 ft 135 kts 254°
2026-04-22 00:48 30.96502 -82.14316 4006 ft 134 kts 254°
2026-04-22 00:49 30.96245 -82.15366 4005 ft 134 kts 254°
2026-04-22 00:49 30.95992 -82.16400 4005 ft 135 kts 254°
2026-04-22 00:49 30.95732 -82.17462 4006 ft 135 kts 254°
2026-04-22 00:49 30.95478 -82.18495 4007 ft 134 kts 254°
2026-04-22 00:50 30.95222 -82.19538 4003 ft 134 kts 254°
2026-04-22 00:50 30.94965 -82.20582 4002 ft 134 kts 254°
2026-04-22 00:50 30.94709 -82.21630 4002 ft 134 kts 254°
2026-04-22 00:50 30.94451 -82.22678 4004 ft 134 kts 254°
2026-04-22 00:51 30.94194 -82.23725 4003 ft 134 kts 254°
2026-04-22 00:51 30.93937 -82.24771 4003 ft 134 kts 255°
2026-04-22 00:51 30.93679 -82.25816 4001 ft 134 kts 254°
2026-04-22 00:51 30.93422 -82.26863 3999 ft 134 kts 254°
2026-04-22 00:52 30.93165 -82.27910 4001 ft 135 kts 254°
2026-04-22 00:52 30.92910 -82.28945 4001 ft 134 kts 254°
2026-04-22 00:52 30.92653 -82.29989 3999 ft 134 kts 254°
2026-04-22 00:52 30.92396 -82.31032 4000 ft 134 kts 254°
2026-04-22 00:53 30.92140 -82.32068 4003 ft 133 kts 254°
2026-04-22 00:53 30.91883 -82.33108 4002 ft 134 kts 253°
2026-04-22 00:53 30.91626 -82.34152 4005 ft 134 kts 253°
2026-04-22 00:53 30.91369 -82.35196 4005 ft 134 kts 254°
2026-04-22 00:54 30.91111 -82.36241 4005 ft 134 kts 254°
2026-04-22 00:54 30.90852 -82.37289 4004 ft 135 kts 254°
2026-04-22 00:54 30.90593 -82.38338 4005 ft 135 kts 254°
2026-04-22 00:54 30.90333 -82.39390 4005 ft 135 kts 254°
2026-04-22 00:55 30.90072 -82.40444 3999 ft 135 kts 252°
2026-04-22 00:55 30.89812 -82.41496 3995 ft 135 kts 252°
2026-04-22 00:55 30.89299 -82.43572 3989 ft 132 kts 251°
2026-04-22 00:56 30.89044 -82.44601 3992 ft 132 kts 251°
2026-04-22 00:56 30.88789 -82.45629 3992 ft 132 kts 252°
2026-04-22 00:56 30.88538 -82.46639 3993 ft 132 kts 251°
2026-04-22 00:56 30.88283 -82.47672 3993 ft 133 kts 251°
2026-04-22 00:57 30.88026 -82.48709 3993 ft 133 kts 251°
2026-04-22 00:57 30.87769 -82.49741 3997 ft 132 kts 252°
2026-04-22 00:57 30.87514 -82.50771 3998 ft 132 kts 252°
2026-04-22 00:57 30.87259 -82.51799 3997 ft 133 kts 251°
2026-04-22 00:58 30.87000 -82.52840 3996 ft 134 kts 251°
2026-04-22 00:58 30.86741 -82.53882 3997 ft 134 kts 251°
2026-04-22 00:58 30.86484 -82.54919 3999 ft 133 kts 252°
2026-04-22 00:58 30.86229 -82.55946 3990 ft 132 kts 251°
2026-04-22 00:59 30.85975 -82.56970 4008 ft 131 kts 252°
2026-04-22 00:59 30.85721 -82.57984 4007 ft 131 kts 252°
2026-04-22 00:59 30.85467 -82.59005 4007 ft 132 kts 251°
2026-04-22 00:59 30.85211 -82.60032 4008 ft 132 kts 251°
2026-04-22 01:00 30.84954 -82.61064 4006 ft 133 kts 251°
2026-04-22 01:00 30.84698 -82.62095 4007 ft 132 kts 251°
2026-04-22 01:00 30.84442 -82.63121 4005 ft 132 kts 251°
2026-04-22 01:00 30.84186 -82.64151 4007 ft 134 kts 250°
2026-04-22 01:01 30.83924 -82.65196 4009 ft 135 kts 251°
2026-04-22 01:01 30.83663 -82.66244 4009 ft 134 kts 251°
2026-04-22 01:01 30.83402 -82.67289 4010 ft 135 kts 251°
2026-04-22 01:01 30.83145 -82.68319 4009 ft 133 kts 251°
2026-04-22 01:02 30.82887 -82.69353 4008 ft 133 kts 251°
2026-04-22 01:02 30.82630 -82.70384 4008 ft 133 kts 251°
2026-04-22 01:02 30.82373 -82.71411 4033 ft 132 kts 252°
2026-04-22 01:02 30.82115 -82.72437 4033 ft 132 kts 251°
2026-04-22 01:03 30.81859 -82.73464 4033 ft 131 kts 252°
2026-04-22 01:03 30.81605 -82.74481 4032 ft 131 kts 252°
2026-04-22 01:03 30.81348 -82.75502 4030 ft 132 kts 252°
2026-04-22 01:03 30.81094 -82.76520 4033 ft 131 kts 252°
2026-04-22 01:04 30.80839 -82.77537 4032 ft 131 kts 252°
2026-04-22 01:04 30.80585 -82.78550 4034 ft 130 kts 252°
2026-04-22 01:04 30.80330 -82.79568 4032 ft 132 kts 251°
2026-04-22 01:04 30.80071 -82.80596 4034 ft 133 kts 251°
2026-04-22 01:05 30.79811 -82.81632 4035 ft 134 kts 251°
2026-04-22 01:05 30.79551 -82.82669 4037 ft 133 kts 252°
2026-04-22 01:05 30.79291 -82.83707 4037 ft 134 kts 251°
2026-04-22 01:05 30.79031 -82.84745 4037 ft 134 kts 251°
2026-04-22 01:06 30.78768 -82.85788 4029 ft 134 kts 251°
2026-04-22 01:06 30.78506 -82.86829 4029 ft 135 kts 251°
2026-04-22 01:06 30.78242 -82.87878 4028 ft 135 kts 252°
2026-04-22 01:06 30.77982 -82.88915 4026 ft 135 kts 251°
2026-04-22 01:07 30.77719 -82.89959 4022 ft 134 kts 252°
2026-04-22 01:07 30.77459 -82.90993 4020 ft 132 kts 251°
2026-04-22 01:07 30.77200 -82.92021 4017 ft 133 kts 251°
2026-04-22 01:07 30.76942 -82.93049 4025 ft 132 kts 251°
2026-04-22 01:08 30.76682 -82.94075 4032 ft 132 kts 252°
2026-04-22 01:08 30.76424 -82.95098 4032 ft 131 kts 251°
2026-04-22 01:08 30.76168 -82.96116 4028 ft 131 kts 251°
2026-04-22 01:08 30.75912 -82.97130 4026 ft 131 kts 250°
2026-04-22 01:09 30.75656 -82.98143 4024 ft 131 kts 251°
2026-04-22 01:09 30.75404 -82.99142 4024 ft 131 kts 251°
2026-04-22 01:09 30.75146 -83.00161 4022 ft 132 kts 251°
2026-04-22 01:09 30.74888 -83.01184 4006 ft 132 kts 250°
2026-04-22 01:10 30.74631 -83.02203 4005 ft 131 kts 250°
2026-04-22 01:10 30.74374 -83.03218 4004 ft 130 kts 250°
2026-04-22 01:10 30.74118 -83.04230 4003 ft 131 kts 251°
2026-04-22 01:10 30.73860 -83.05247 4001 ft 131 kts 250°
2026-04-22 01:11 30.73604 -83.06259 4001 ft 131 kts 251°
2026-04-22 01:11 30.73347 -83.07274 3999 ft 130 kts 251°
2026-04-22 01:11 30.73092 -83.08282 3998 ft 130 kts 250°
2026-04-22 01:11 30.72836 -83.09292 3996 ft 131 kts 251°
2026-04-22 01:12 30.72580 -83.10303 3996 ft 130 kts 251°
2026-04-22 01:12 30.72325 -83.11307 3995 ft 130 kts 250°
2026-04-22 01:12 30.72069 -83.12315 3994 ft 130 kts 250°
2026-04-22 01:12 30.71814 -83.13321 3993 ft 129 kts 251°
2026-04-22 01:13 30.71563 -83.14308 3994 ft 130 kts 250°
2026-04-22 01:13 30.71308 -83.15313 3992 ft 130 kts 251°
2026-04-22 01:13 30.71052 -83.16323 3978 ft 131 kts 252°
2026-04-22 01:13 30.70793 -83.17339 3977 ft 131 kts 252°
2026-04-22 01:14 30.70534 -83.18358 3978 ft 132 kts 252°
2026-04-22 01:14 30.70274 -83.19380 3977 ft 132 kts 253°
2026-04-22 01:14 30.70014 -83.20403 3976 ft 132 kts 253°
2026-04-22 01:14 30.69755 -83.21422 3976 ft 131 kts 253°
2026-04-22 01:15 30.69495 -83.22442 3976 ft 131 kts 253°
2026-04-22 01:15 30.69235 -83.23461 3976 ft 132 kts 253°
2026-04-22 01:15 30.68975 -83.24482 3976 ft 132 kts 252°
2026-04-22 01:15 30.68715 -83.25504 3976 ft 132 kts 252°
2026-04-22 01:16 30.68455 -83.26525 3977 ft 132 kts 252°
2026-04-22 01:16 30.68195 -83.27546 3978 ft 132 kts 252°
2026-04-22 01:16 30.67933 -83.28569 3977 ft 132 kts 252°
2026-04-22 01:16 30.67672 -83.29593 3979 ft 132 kts 252°
2026-04-22 01:17 30.67410 -83.30619 3978 ft 133 kts 252°
2026-04-22 01:17 30.67149 -83.31644 3977 ft 132 kts 252°
2026-04-22 01:17 30.66886 -83.32669 3978 ft 132 kts 252°
2026-04-22 01:17 30.66624 -83.33693 3979 ft 132 kts 252°
2026-04-22 01:18 30.66362 -83.34720 3979 ft 133 kts 252°
2026-04-22 01:18 30.66100 -83.35747 3979 ft 133 kts 252°
2026-04-22 01:18 30.65837 -83.36775 3978 ft 133 kts 252°
2026-04-22 01:18 30.65558 -83.37773 3973 ft 128 kts 249°
2026-04-22 01:19 30.65282 -83.38662 3966 ft 108 kts 249°
2026-04-22 01:19 30.65047 -83.39428 3969 ft 94 kts 249°
2026-04-22 01:19 30.64839 -83.40107 3977 ft 86 kts 249°
2026-04-22 01:19 30.64623 -83.40786 3964 ft 93 kts 249°
2026-04-22 01:20 30.64403 -83.41504 3854 ft 95 kts 248°
2026-04-22 01:20 30.64180 -83.42231 3710 ft 98 kts 248°
2026-04-22 01:20 30.63943 -83.43005 3490 ft 104 kts 248°
2026-04-22 01:20 30.63699 -83.43807 3274 ft 106 kts 248°
2026-04-22 01:21 30.63449 -83.44624 3081 ft 109 kts 248°
2026-04-22 01:21 30.63187 -83.45476 2902 ft 114 kts 248°
2026-04-22 01:21 30.62919 -83.46349 2690 ft 115 kts 248°
2026-04-22 01:21 30.62649 -83.47236 2445 ft 119 kts 248°
2026-04-22 01:22 30.62366 -83.48158 2215 ft 123 kts 247°
2026-04-22 01:22 30.62174 -83.48781 2077 ft 124 kts 248°
2026-04-22 01:22 30.61893 -83.49709 1979 ft 116 kts 248°
2026-04-22 01:22 30.61641 -83.50541 1970 ft 103 kts 247°
2026-04-22 01:23 30.61414 -83.51286 1972 ft 93 kts 247°
2026-04-22 01:23 30.61150 -83.52161 1957 ft 80 kts 248°
2026-04-22 01:23 30.60971 -83.52747 1881 ft 74 kts 246°
2026-04-22 01:23 30.60846 -83.53143 1586 ft 85 kts 247°
2026-04-22 01:24 30.60658 -83.53753 1295 ft 74 kts 250°
2026-04-22 01:24 30.60486 -83.54311 945 ft 73 kts 250°
2026-04-22 01:24 30.60318 -83.54859 576 ft 71 kts 250°
2026-04-22 01:24 30.60150 -83.55402 209 ft 72 kts 250°
2026-04-22 01:25 30.60125 -83.55466 139 ft 0 kts 150°
2026-04-22 01:25 30.60126 -83.55466 139 ft 0 kts 148°
2026-04-22 01:25 30.60862 -83.55902 1111 ft 0 kts 154°
2026-04-22 01:25 30.61089 -83.56147 2579 ft 0 kts 162°
2026-04-22 01:26 30.60706 -83.56013 3908 ft 129 kts 173°
2026-04-22 01:26 30.59910 -83.55755 3821 ft 116 kts 168°
2026-04-22 01:26 30.59211 -83.56153 3689 ft 120 kts 238°
2026-04-22 01:26 30.59191 -83.57080 3578 ft 120 kts 291°
2026-04-22 01:27 30.59270 -83.58089 3476 ft 134 kts 255°
2026-04-22 01:27 30.58983 -83.59145 3368 ft 140 kts 251°
2026-04-22 01:27 30.58664 -83.60216 3238 ft 135 kts 250°
2026-04-22 01:27 30.58381 -83.61160 3079 ft 115 kts 249°
2026-04-22 01:28 30.58127 -83.61990 2918 ft 104 kts 249°
2026-04-22 01:28 30.57896 -83.62746 2771 ft 96 kts 249°
2026-04-22 01:28 30.57663 -83.63489 2720 ft 106 kts 248°
2026-04-22 01:28 30.57387 -83.64367 2643 ft 126 kts 249°
2026-04-22 01:29 30.57078 -83.65372 2532 ft 137 kts 250°
2026-04-22 01:29 30.56754 -83.66429 2420 ft 141 kts 250°
2026-04-22 01:29 30.56425 -83.67503 2310 ft 142 kts 249°
2026-04-22 01:29 30.56093 -83.68584 2200 ft 142 kts 249°
2026-04-22 01:30 30.55834 -83.69424 2101 ft 133 kts 250°
2026-04-22 01:30 30.55665 -83.69981 2020 ft 126 kts 250°
2026-04-22 01:30 30.55386 -83.70892 1962 ft 112 kts 249°
2026-04-22 01:30 30.55131 -83.71717 1981 ft 112 kts 249°
2026-04-22 01:31 30.54853 -83.72607 1987 ft 123 kts 249°
2026-04-22 01:31 30.54559 -83.73556 1987 ft 129 kts 249°
2026-04-22 01:31 30.54254 -83.74550 1986 ft 132 kts 250°
2026-04-22 01:31 30.53945 -83.75560 1986 ft 133 kts 250°
2026-04-22 01:32 30.53636 -83.76574 1979 ft 134 kts 249°
2026-04-22 01:32 30.53325 -83.77591 1979 ft 134 kts 249°
2026-04-22 01:32 30.53014 -83.78608 1979 ft 134 kts 250°
2026-04-22 01:32 30.52702 -83.79625 1978 ft 134 kts 250°
2026-04-22 01:33 30.52390 -83.80643 1979 ft 134 kts 250°
2026-04-22 01:33 30.52079 -83.81658 1978 ft 134 kts 250°
2026-04-22 01:33 30.51768 -83.82673 1977 ft 134 kts 250°
2026-04-22 01:33 30.51456 -83.83689 1978 ft 134 kts 250°
2026-04-22 01:34 30.51145 -83.84704 1977 ft 134 kts 250°
2026-04-22 01:34 30.50833 -83.85721 1978 ft 134 kts 250°
2026-04-22 01:34 30.50520 -83.86740 1979 ft 134 kts 250°
2026-04-22 01:34 30.50206 -83.87760 1979 ft 134 kts 250°
2026-04-22 01:35 30.49894 -83.88777 1977 ft 134 kts 249°
2026-04-22 01:35 30.49586 -83.89781 1978 ft 134 kts 250°
2026-04-22 01:35 30.49273 -83.90798 1978 ft 134 kts 250°
2026-04-22 01:35 30.48962 -83.91813 1972 ft 134 kts 252°
2026-04-22 01:36 30.48648 -83.92831 1968 ft 134 kts 252°
2026-04-22 01:36 30.48335 -83.93849 1969 ft 135 kts 252°
2026-04-22 01:36 30.47867 -83.94774 1954 ft 136 kts 215°
2026-04-22 01:36 30.47035 -83.95267 1966 ft 134 kts 205°
2026-04-22 01:37 30.46199 -83.95746 1968 ft 134 kts 205°
2026-04-22 01:37 30.45357 -83.96221 1968 ft 134 kts 204°
2026-04-22 01:37 30.44518 -83.96695 1969 ft 134 kts 205°
2026-04-22 01:37 30.43678 -83.97168 1968 ft 134 kts 204°
2026-04-22 01:38 30.42839 -83.97640 1969 ft 134 kts 204°
2026-04-22 01:38 30.41998 -83.98114 1968 ft 135 kts 204°
2026-04-22 01:38 30.41166 -83.98583 1969 ft 135 kts 204°
2026-04-22 01:38 30.40324 -83.99059 1969 ft 135 kts 205°
2026-04-22 01:39 30.39647 -83.99774 1968 ft 135 kts 247°
2026-04-22 01:39 30.39317 -84.00785 1976 ft 135 kts 253°
2026-04-22 01:39 30.39077 -84.01834 1973 ft 134 kts 262°
2026-04-22 01:39 30.38940 -84.02903 1973 ft 134 kts 264°
2026-04-22 01:40 30.38863 -84.03973 1974 ft 133 kts 276°
2026-04-22 01:40 30.38906 -84.05042 1986 ft 131 kts 275°
2026-04-22 01:40 30.38929 -84.06073 1986 ft 123 kts 274°
2026-04-22 01:40 30.38943 -84.07036 1970 ft 116 kts 275°
2026-04-22 01:41 30.38957 -84.07959 1970 ft 114 kts 275°
2026-04-22 01:41 30.38969 -84.08873 1968 ft 113 kts 275°
2026-04-22 01:41 30.38981 -84.09781 1968 ft 112 kts 275°
2026-04-22 01:41 30.38992 -84.10685 1967 ft 112 kts 275°
2026-04-22 01:42 30.39003 -84.11583 1963 ft 111 kts 275°
2026-04-22 01:42 30.39015 -84.12481 1963 ft 111 kts 275°
2026-04-22 01:42 30.39026 -84.13375 1964 ft 111 kts 275°
2026-04-22 01:42 30.39037 -84.14275 1965 ft 112 kts 275°
2026-04-22 01:43 30.39048 -84.15173 1969 ft 111 kts 275°
2026-04-22 01:43 30.39059 -84.16081 1913 ft 115 kts 275°
2026-04-22 01:43 30.39070 -84.17021 1844 ft 117 kts 275°
2026-04-22 01:43 30.39081 -84.17969 1773 ft 118 kts 274°
2026-04-22 01:44 30.39093 -84.18906 1697 ft 118 kts 274°
2026-04-22 01:44 30.39103 -84.19867 1620 ft 118 kts 275°
2026-04-22 01:44 30.39114 -84.20802 1560 ft 118 kts 274°
2026-04-22 01:44 30.39121 -84.21714 1540 ft 104 kts 274°
2026-04-22 01:45 30.39129 -84.22521 1477 ft 98 kts 275°
2026-04-22 01:45 30.39138 -84.23306 1398 ft 97 kts 275°
2026-04-22 01:45 30.39147 -84.24083 1313 ft 96 kts 275°
2026-04-22 01:45 30.39102 -84.24871 1175 ft 100 kts 269°
2026-04-22 01:46 30.39087 -84.25676 1043 ft 96 kts 275°
2026-04-22 01:46 30.39141 -84.26428 926 ft 92 kts 282°
2026-04-22 01:46 30.39244 -84.27115 882 ft 87 kts 277°
2026-04-22 01:46 30.39230 -84.27823 820 ft 90 kts 271°
2026-04-22 01:47 30.39214 -84.28543 772 ft 89 kts 269°
2026-04-22 01:47 30.39200 -84.29242 772 ft 84 kts 272°
2026-04-22 01:47 30.39207 -84.29956 670 ft 92 kts 271°
2026-04-22 01:47 30.39193 -84.30684 495 ft 94 kts 269°
2026-04-22 01:48 30.39166 -84.31447 366 ft 95 kts 269°
2026-04-22 01:48 30.39154 -84.32104 203 ft 71 kts 271°
2026-04-22 01:48 30.39158 -84.32690 86 ft 74 kts 271°
2026-04-22 01:48 30.39156 -84.33292 63 ft 68 kts 271°
2026-04-22 01:49 30.39164 -84.33763 61 ft 46 kts 267°
2026-04-22 01:49 30.39151 -84.34062 65 ft 30 kts 268°
2026-04-22 01:49 30.39145 -84.34275 66 ft 25 kts 269°
2026-04-22 01:49 30.39150 -84.34429 67 ft 16 kts 266°
2026-04-22 01:50 30.39149 -84.34569 66 ft 21 kts 261°
2026-04-22 01:50 30.39137 -84.34760 65 ft 27 kts 272°
2026-04-22 01:50 30.39142 -84.34984 64 ft 26 kts 289°
2026-04-22 01:50 30.39130 -84.35151 66 ft 17 kts 269°
2026-04-22 01:51 30.39135 -84.35274 66 ft 17 kts 266°
2026-04-22 01:51 30.39132 -84.35406 67 ft 15 kts 269°
2026-04-22 01:51 30.39130 -84.35509 69 ft 11 kts 268°
2026-04-22 01:51 30.39140 -84.35576 70 ft 7 kts 321°
2026-04-22 01:52 30.39187 -84.35592 70 ft 11 kts 354°
2026-04-22 01:52 30.39293 -84.35595 69 ft 16 kts 360°
2026-04-22 01:52 30.39398 -84.35572 66 ft 15 kts 53°
2026-04-22 01:52 30.39409 -84.35459 66 ft 15 kts 89°
2026-04-22 01:53 30.39410 -84.35343 65 ft 14 kts 87°
2026-04-22 01:53 30.39410 -84.35219 65 ft 19 kts 89°
2026-04-22 01:53 30.39411 -84.35059 63 ft 19 kts 90°
2026-04-22 01:53 30.39412 -84.34920 63 ft 16 kts 90°
2026-04-22 01:54 30.39414 -84.34797 65 ft 14 kts 88°
2026-04-22 01:54 30.39413 -84.34702 66 ft 10 kts 85°
2026-04-22 01:54 30.39416 -84.34640 67 ft 6 kts 70°
2026-04-22 01:54 30.39429 -84.34624 64 ft 0 kts 40°